• Processing (Info)

  • MPEC 2011-L24 : 2011 LZ2

    The following Minor Planet Electronic Circular may be linked-to from your own Web pages, but must not otherwise be redistributed electronically.

    A form allowing access to any MPEC is at the bottom of this page.


    Read MPEC 2011-L23 Read MPEC 2011-L25


    M.P.E.C. 2011-L24                                Issued 2011 June 6, 13:18 UT
    
         The Minor Planet Electronic Circulars contain information on unusual
             minor planets and routine data on comets.  They are published
       on behalf of Commission 20 of the International Astronomical Union by the
              Minor Planet Center, Smithsonian Astrophysical Observatory,
                              Cambridge, MA 02138, U.S.A.
    
                 Prepared using the Tamkin Foundation Computer Network
    
                                  MPC@CFA.HARVARD.EDU
                URL https://www.minorplanetcenter.net/    ISSN 1523-6714
    
                                       2011 LZ2
    
    Observations:
         K11L02Z* C2011 06 05.42823 21 30 30.92 -09 06 09.8          19.5 VrEL024G96
         K11L02Z  C2011 06 05.43173 21 30 26.74 -09 05 51.1          19.5 VrEL024G96
         K11L02Z  C2011 06 05.43876 21 30 18.28 -09 05 12.8          19.4 VrEL024G96
         K11L02Z  C2011 06 05.45175 21 30 02.73 -09 04 02.7          19.8 VrEL024G96
         K11L02Z  C2011 06 05.45233 21 30 02.05 -09 03 59.7          19.8 VrEL024G96
         K11L02Z  C2011 06 05.45289 21 30 01.33 -09 03 56.5          20.2 VrEL024G96
         K11L02Z  C2011 06 05.45350 21 30 00.64 -09 03 53.2          20.0 VrEL024G96
         K11L02Z  C2011 06 05.45473 21 29 59.17 -09 03 46.7          20.2 VrEL024G96
         K11L02Z  C2011 06 05.45528 21 29 58.52 -09 03 44.0          20.3 VrEL024G96
         K11L02Z  C2011 06 05.45587 21 29 57.80 -09 03 40.5          20.3 VrEL024G96
         K11L02Z  C2011 06 05.45645 21 29 57.08 -09 03 37.1          20.1 VrEL024G96
         K11L02Z  C2011 06 05.45831 21 29 54.85 -09 03 27.3          20.0 VrEL024G96
         K11L02Z  C2011 06 05.45888 21 29 54.16 -09 03 24.4          20.0 VrEL024G96
         K11L02Z  C2011 06 05.45948 21 29 53.48 -09 03 21.1          20.1 VrEL024G96
         K11L02Z  C2011 06 05.46007 21 29 52.76 -09 03 17.9          19.9 VrEL024G96
         K11L02Z  C2011 06 05.46228 21 29 50.10 -09 03 05.8          19.7 VrEL024G96
         K11L02Z  C2011 06 05.46287 21 29 49.38 -09 03 02.7          19.5 VrEL024G96
         K11L02Z  C2011 06 05.46346 21 29 48.73 -09 02 59.7          19.7 VrEL024G96
         K11L02Z  C2011 06 05.46403 21 29 47.97 -09 02 56.3          19.6 VrEL024G96
         K11L02Z  C2011 06 06.43418 21 14 01.57 -07 41 49.9          19.5 VrEL024G96
         K11L02Z  C2011 06 06.43509 21 14 00.67 -07 41 45.6          19.5 VrEL024G96
         K11L02Z  C2011 06 06.43605 21 13 59.73 -07 41 41.5          19.2 VrEL024G96
         K11L02Z  C2011 06 06.43699 21 13 58.83 -07 41 37.4          19.5 VrEL024G96
         K11L02Z  C2011 06 06.43865 21 13 57.14 -07 41 29.1          19.1 VrEL024G96
         K11L02Z  C2011 06 06.43957 21 13 56.28 -07 41 25.6          19.5 VrEL024G96
         K11L02Z  C2011 06 06.44051 21 13 55.34 -07 41 21.3          19.4 VrEL024G96
         K11L02Z  C2011 06 06.44147 21 13 54.40 -07 41 17.1          19.6 VrEL024G96
         K11L02Z  C2011 06 06.44538 21 13 50.55 -07 40 59.4          20.2 VrEL024G96
         K11L02Z  C2011 06 06.44634 21 13 49.51 -07 40 55.0          20.1 VrEL024G96
         K11L02Z  C2011 06 06.44730 21 13 48.64 -07 40 50.7          20.1 VrEL024G96
         K11L02Z  C2011 06 06.44826 21 13 47.71 -07 40 46.5          19.9 VrEL024G96
    
    Observer details:
    G96 Mt. Lemmon Survey.  Observer A. D. Grauer.  Measurers J. D. Ahern,
        E. C. Beshore, A. Boattini, G. J. Garradd, A. R. Gibbs, A. D. Grauer,
        R. E. Hill, R. A. Kowalski, S. M. Larson, R. H. McNaught.  1.5-m reflector
        + CCD.
    
    Orbital elements:
    2011 LZ2                                                 Earth MOID = 0.0023 AU
    Epoch 2011 Aug. 27.0 TT = JDT 2455800.5                 MPC
    M  73.99839              (2000.0)            P               Q
    n   0.61282118     Peri.  318.04772     -0.84585970     +0.52726795
    a   1.3727145      Node   253.94364     -0.46434680     -0.80231327
    e   0.3010984      Incl.    4.81616     -0.26249460     -0.27978906
    P   1.61           H   25.2           G   0.15           U   7
    Residuals in seconds of arc
    110605 G96  0.1+  0.2-    110605 G96  0.0   0.1+    110606 G96  0.6+  0.1-
    110605 G96  0.3+  0.3-    110605 G96  0.1-  0.0     110606 G96  0.2-  0.7+
    110605 G96  0.1-  0.1+    110605 G96  0.5+  0.0     110606 G96  0.5+  0.0
    110605 G96  0.2+  0.2+    110605 G96  0.3+  0.0     110606 G96  0.3+  0.1+
    110605 G96  0.5+  0.0     110605 G96  0.1+  0.2+    110606 G96  0.4+  0.1-
    110605 G96  0.2-  0.2+    110605 G96  0.1-  0.1+    110606 G96  0.4+  0.1-
    110605 G96  0.4+  0.2+    110605 G96  0.8+  0.1-    110606 G96  1.0-  0.0
    110605 G96  0.4+  0.1+    110605 G96  0.4-  0.2+    110606 G96  0.2+  0.0
    110605 G96  0.6+  0.2-    110606 G96  0.2+  0.1+    110606 G96  0.4+  0.2-
    110605 G96  0.4+  0.1+    110606 G96  0.1+  0.3+
    110605 G96  0.0   0.4+    110606 G96  0.2+  0.0
    
    Ephemeris:
    2011 LZ2                 a,e,i = 1.37, 0.30, 5                   q = 0.9594
    Date    TT    R. A. (2000) Decl.     Delta      r     Elong.  Phase     V
    2011 05 07    06 22 31.8 -05 47 41   0.08655 0.9634    56.2   119.5    24.6
    ...
    2011 05 22    05 23 08.0 -12 38 34   0.03445 0.9859    39.6   139.1    24.6
    ...
    2011 05 30    01 31 12.6 -20 52 29   0.01628 1.0056    60.1   119.1    21.0
    ...
    2011 06 05    21 38 32.2 -09 43 15   0.02531 1.0235   110.1    68.6    19.7
    2011 06 06    21 20 37.4 -08 13 05   0.02813 1.0267   114.7    63.9    19.8
    2011 06 07    21 06 04.7 -06 57 51   0.03109 1.0300   118.5    60.0    19.9
    ...
    2011 06 13    20 16 27.7 -02 42 04   0.05053 1.0508   133.3    44.7    20.5
    ...
    2011 06 21    19 47 51.7 -00 49 16   0.07857 1.0813   144.7    32.9    21.2
    ...
    2011 07 06    19 22 07.0 -01 01 36   0.1372  1.1447   157.5    19.9    22.2
    
    A. U. Tomatic                (C) Copyright 2011 MPC           M.P.E.C. 2011-L24
    

    Read MPEC 2011-L23 Read MPEC 2011-L25


    MPEC number:

    Enter an MPEC number in one of the following forms:

    • 1997-B01 (the full form)
    • J97B01 (the packed version of the full form)
    • B01 (the abbreviated form)